Weather History for Nenana, AK

Change the Weather History Date:

Friday, July 4, 2014

  Actual Average Record
Temperature  
Mean Temperature 64 °F -  
Max Temperature 77 °F 75 °F 82 °F (2007)
Min Temperature 52 °F 49 °F 45 °F (1977)
Growing Degree Days 14 (Base 50)    
Moisture  
Dew Point 49 °F    
Average Humidity 64    
Maximum Humidity 100    
Minimum Humidity 31    
Precipitation  
Precipitation 0.08 in - - ()
Sea Level Pressure  
Sea Level Pressure 29.88 in    
Wind  
Wind Speed 2 mph (ENE)    
Max Wind Speed 12 mph    
Max Gust Speed -    
Visibility 10 miles    
Events Rain    
Averages and records for this station are not official NWS values.
T = Trace of Precipitation, MM = Missing Value Source: NWS Daily Summary

Daily Weather History Graph

Daily Weather History Graph

Search for Another Location

Airport:

Trip Planner

Search our weather history database for the weather conditions in past years. The results will help you decide how hot, cold, wet, or windy it might be!

Date:

Astronomy

Jul. 04, 2014 Rise Set
Actual Time 3:31 AM AKDT 12:27 AM AKDT
Civil Twilight Sun does not rise Sun does not rise
Nautical Twilight Sun does not rise Sun does not rise
Astronomical Twilight Sun does not rise Sun does not rise
Moon 1:59 PM AKDT (7/4) 12:46 AM AKDT (7/4)
Length of Visible Light 24h 00m
Length of Day
20h 56m
Waxing Crescent, 43% of the Moon is Illuminated
Jul 4
Waxing Crescent
Jul 5
First Quarter
Jul 12
Full
Jul 18
Last Quarter
Jul 26
New

Hourly Weather History & Observations

Time (AKDT) Temp. Dew Point Humidity Pressure Visibility Wind Dir Wind Speed Gust Speed Precip Events Conditions
12:53 AM 55.9 °F 50.0 °F 80% 29.88 in 10.0 mi Calm Calm - N/A   Clear
1:53 AM 53.1 °F 48.9 °F 86% 29.88 in 10.0 mi Calm Calm - N/A   Clear
2:53 AM 52.0 °F 48.9 °F 89% 29.88 in 10.0 mi Calm Calm - N/A   Clear
3:53 AM 51.1 °F 48.0 °F 89% 29.89 in 10.0 mi Calm Calm - N/A   Clear
4:53 AM 50.0 °F 48.0 °F 93% 29.89 in 10.0 mi Calm Calm - N/A   Clear
5:53 AM 52.0 °F 48.9 °F 89% 29.90 in 10.0 mi Calm Calm - N/A   Partly Cloudy
6:53 AM 55.9 °F 51.1 °F 84% 29.89 in 10.0 mi ESE 4.6 mph - N/A   Clear
7:53 AM 60.1 °F 52.0 °F 75% 29.90 in 10.0 mi Calm Calm - N/A   Clear
8:53 AM 63.0 °F 52.0 °F 67% 29.90 in 10.0 mi Calm Calm - N/A   Clear
9:53 AM 66.9 °F 53.1 °F 61% 29.89 in 10.0 mi NE 3.5 mph - N/A   Clear
10:53 AM 70.0 °F 52.0 °F 53% 29.89 in 10.0 mi NE 4.6 mph - N/A   Clear
12:53 PM 73.9 °F 48.0 °F 40% 29.88 in 10.0 mi Variable 3.5 mph - N/A   Clear
1:53 PM 73.9 °F 46.9 °F 38% 29.87 in 10.0 mi Variable 5.8 mph - N/A   Partly Cloudy
2:53 PM 75.9 °F 46.9 °F 36% 29.86 in 10.0 mi Variable 3.5 mph - N/A   Clear
3:53 PM 75.9 °F 46.0 °F 35% 29.86 in 10.0 mi Variable 4.6 mph - N/A   Clear
4:53 PM 75.9 °F 43.0 °F 31% 29.85 in 10.0 mi Calm Calm - N/A   Clear
5:53 PM 75.9 °F 46.9 °F 36% 29.84 in 10.0 mi Calm Calm - N/A   Clear
6:53 PM 75.0 °F 42.1 °F 31% 29.83 in 10.0 mi Calm Calm - N/A   Clear
7:53 PM 77.0 °F 45.0 °F 32% 29.82 in 10.0 mi Calm Calm - N/A   Clear
8:53 PM 75.0 °F 46.9 °F 37% 29.82 in 10.0 mi Calm Calm - N/A   Clear
9:53 PM 71.1 °F 46.9 °F 42% 29.82 in 10.0 mi Calm Calm - N/A   Clear
10:53 PM 64.9 °F 51.1 °F 61% 29.82 in 10.0 mi Calm Calm - N/A   Clear
11:53 PM 60.1 °F 53.1 °F 78% 29.83 in 10.0 mi Calm Calm - N/A   Clear